Погода в Ростовском

Россия / Архангельская область     62°46′42″N   43°09′16″E
темп.,
°C
ветер,
м/с
пор.,
м/с
влажн.,
%
обл.,
%
осадки,
мм/ч
давл.,
гПа
погр.,
м
13 мая, чт
чт1300:00+15ю227127 0.0 102322
03:00+13ююв22770 0.0 102318
06:00+16ююв24640 0.0 1022176
09:00+22ю35390 0.0 1022657
12:00+26ююз46334 0.0 10201945
15:00+27ююз462861 0.0 10193188
18:00+23юз374499 0.0 1017279
21:00+19ю225728 0.0 101733
14 мая, пт
пт1400:00+15ююв24772 0.3 101783
03:00+14вюв228299 0.4 101552
06:00+16вюв1182100 0.0 101461
09:00+19ююз3466100 0.3 1014882
12:00+19юз4766100 1.7 10141194
15:00+21зюз475137 1.8 10141620
18:00+23юз463557 0.0 10132238
21:00+16юз285521 0.0 1014162
15 мая, сб
сб1500:00+13ююз226865 0.0 101533
03:00+11ююз117598 0.0 101511
06:00+14ююв1364100 0.0 1015147
09:00+19ю2457100 0.0 1014619
12:00+18ю2470100 0.4 1013380
15:00+22юв355290 0.6 10111273
18:00+19юв256690 0.3 1008512
21:00+15вюв3989100 0.6 1007294
16 мая, вс
вс1600:00+15ю31097100 2.3 1005397
03:00+14ю4119350 3.8 1004592
06:00+15ююз4989100 0.3 1004713
09:00+15ююз51088100 0.7 1004762
12:00+17юз51179100 0.3 10051098
15:00+16зюз5979100 0.4 1008990
18:00+15з4107991 0.1 1009908
21:00+14зсз41083100 0.1 1011804
17 мая, пн
пн1700:00+12зсз378871 0.0 1012483
03:00+10зсз269469 0.0 1014339
06:00+11сз368094 0.0 1016660
09:00+15зсз356065 0.0 1017984
12:00+19зсз354316 0.0 10181763
15:00+20зсз233888 0.0 10182089
18:00+20ссз234012 0.0 10181550
21:00+15вюв255790 0.0 1019111